Date,TemperatureHighF,TemperatureAvgF,TemperatureLowF,DewpointHighF,DewpointAvgF,DewpointLowF,HumidityHigh,HumidityAvg,HumidityLow,PressureMaxIn,PressureMinIn,WindSpeedMaxMPH,WindSpeedAvgMPH,GustSpeedMaxMPH,PrecipitationSumIn
2013-1-1,16,7,-7,9,2,-12,85,79,69,30.41,30.25,7,-4,8,0.00
2013-1-2,9,-4,-12,1,-10,-19,80,75,68,30.44,30.38,6,-4,7,0.00
2013-1-3,14,-1,-12,3,-7,-19,80,74,61,30.40,30.33,6,3,8,0.00
2013-1-4,12,0,-11,3,-6,-18,80,74,64,30.37,30.29,6,3,7,0.00
2013-1-5,16,0,-8,4,-6,-14,79,74,58,30.40,30.21,9,3,11,0.00
2013-1-6,25,12,0,14,5,-5,83,73,60,30.21,30.00,24,5,35,0.00
2013-1-7,30,10,-4,26,5,-9,87,80,73,30.16,30.03,22,4,25,0.00
2013-1-8,37,32,28,30,26,23,87,78,70,30.27,30.03,24,13,29,0.00
2013-1-9,44,39,33,28,26,22,76,60,41,30.27,29.71,28,18,37,0.00
2013-1-10,43,29,20,30,22,16,88,76,44,29.71,29.50,31,18,40,0.00
2013-1-11,20,15,7,16,9,1,87,76,61,29.94,29.56,23,10,30,0.00
2013-1-12,10,-1,-16,3,-7,-22,81,75,63,30.07,29.94,8,4,10,0.00
2013-1-13,2,-4,-14,-2,-9,-21,79,75,68,30.16,30.06,6,3,7,0.00
2013-1-14,6,5,4,0,-1,-4,80,75,67,30.30,30.24,6,3,7,0.00
2013-1-15,11,7,4,6,1,-2,81,77,71,30.55,30.30,8,5,10,0.00
2013-1-16,12,6,-3,7,1,-8,83,80,75,30.61,30.56,6,4,7,0.00
2013-1-17,13,1,-8,5,-5,-14,81,77,69,30.59,30.46,6,3,6,0.00
2013-1-18,14,-1,-6,6,-7,-11,76,75,70,30.44,30.37,4,3,5,0.00
2013-1-19,14,-2,-8,6,-7,-13,80,76,69,30.49,30.40,5,3,6,0.00
2013-1-20,16,1,-5,6,-4,-10,80,77,64,30.45,30.40,5,3,6,0.00
2013-1-21,17,4,-7,8,-2,-13,79,74,63,30.41,30.30,6,3,7,0.00
2013-1-22,21,6,-6,9,0,-12,81,75,60,30.34,30.24,5,3,7,0.00
2013-1-23,24,8,0,15,2,-5,80,76,64,30.25,30.12,6,3,7,0.00
2013-1-24,37,29,14,31,23,10,87,78,67,30.24,30.10,11,6,13,0.00
2013-1-25,41,37,32,33,31,29,89,80,72,30.25,30.02,17,7,23,0.00
2013-1-26,47,40,34,36,34,31,90,79,64,30.03,29.76,18,9,27,0.00
2013-1-27,37,29,26,33,26,19,91,86,75,29.85,29.75,20,15,28,0.00
2013-1-28,27,24,22,20,19,16,84,79,73,29.91,29.81,19,13,25,0.00
2013-1-29,27,24,17,22,19,13,86,82,71,30.07,29.76,17,7,22,0.00
2013-1-30,36,31,22,30,27,16,86,82,73,30.11,30.03,27,19,33,0.00
2013-1-31,38,36,33,31,30,29,85,79,74,30.27,30.17,19,14,24,0.00
2013-2-1,38,35,32,31,30,28,90,80,74,30.37,30.15,19,12,25,0.00
2013-2-2,36,31,25,30,27,21,92,87,75,30.47,30.33,12,5,15,0.00
2013-2-3,30,26,22,27,23,20,92,90,86,30.33,30.14,12,4,16,0.00
2013-2-4,42,32,26,27,25,21,92,75,50,30.17,30.05,12,6,15,0.00
2013-2-5,42,33,28,28,26,24,87,77,54,30.10,29.85,14,6,20,0.00
2013-2-6,37,32,27,28,26,20,89,78,65,30.14,29.88,20,11,26,0.00
2013-2-7,41,30,20,24,19,15,88,64,36,30.14,29.84,21,7,27,0.00
2013-2-8,36,31,25,29,23,17,89,74,51,29.84,29.65,18,7,29,0.00
2013-2-9,32,28,24,25,22,19,88,77,64,29.81,29.64,17,10,22,0.00
2013-2-10,31,25,16,23,14,2,89,64,45,30.05,29.81,22,11,29,0.00
2013-2-11,28,16,-2,18,6,-8,77,63,44,30.16,30.04,13,6,16,0.00
2013-2-12,32,26,18,24,17,11,77,69,61,30.26,30.16,22,8,28,0.00
2013-2-13,37,34,31,26,24,22,70,67,63,30.24,30.11,22,17,28,0.00
2013-2-14,38,32,25,27,25,22,88,74,58,30.35,30.14,19,12,25,0.00
2013-2-15,42,34,26,28,24,21,81,66,54,30.46,30.35,19,12,25,0.00
2013-2-16,45,36,27,25,23,18,84,59,42,30.38,29.90,18,10,25,0.00
2013-2-17,42,33,26,28,21,16,79,62,37,30.02,29.81,33,14,41,0.00
2013-2-18,37,29,22,21,16,11,80,59,40,30.07,29.86,19,9,24,0.00
2013-2-19,42,31,23,26,19,10,78,62,46,29.86,29.58,19,7,24,0.00
2013-2-20,34,28,25,27,23,19,87,81,63,29.80,29.58,22,10,28,0.00
2013-2-21,29,25,20,22,18,14,87,74,58,29.96,29.80,18,12,23,0.00
2013-2-22,33,29,24,24,22,20,90,75,64,30.06,29.88,28,15,35,0.00
2013-2-23,31,27,21,25,21,13,88,77,64,29.96,29.61,33,19,45,0.00
2013-2-24,28,18,0,20,10,-6,83,71,57,30.19,29.96,17,9,21,0.00
2013-2-25,30,24,10,23,15,6,88,69,51,30.18,29.95,19,12,28,0.00
2013-2-26,30,23,15,23,17,11,90,77,55,30.27,29.99,17,9,21,0.00
2013-2-27,33,20,4,17,10,0,85,67,46,30.37,30.27,18,-14,22,0.00
2013-2-28,34,23,8,28,16,4,88,73,50,30.44,30.31,10,4,14,0.00
2013-3-1,43,33,30,34,29,27,90,84,69,30.50,30.43,8,3,10,0.00
2013-3-2,44,35,24,35,29,21,92,80,58,30.47,30.00,10,-37,13,0.00
2013-3-3,44,38,28,36,30,18,86,70,55,30.01,29.79,37,20,48,0.00
2013-3-4,34,29,24,20,11,7,70,48,33,30.21,29.94,13,7,17,0.00
2013-3-5,45,33,26,24,15,7,83,49,32,30.20,29.88,20,9,29,0.00
2013-3-6,52,35,24,34,26,19,90,72,39,29.93,29.67,30,10,39,0.00
2013-3-7,41,35,31,27,24,19,74,62,49,30.01,29.89,16,9,19,0.00
2013-3-8,41,35,29,34,30,24,91,80,63,29.89,29.78,11,5,15,0.00
2013-3-9,44,33,22,25,20,14,91,64,31,30.25,29.83,21,7,29,0.00
2013-3-10,47,37,25,27,22,15,81,56,34,30.35,30.18,22,14,27,0.00
2013-3-11,51,42,38,37,27,16,81,55,35,30.20,30.08,23,15,29,0.00
2013-3-12,53,42,29,34,30,25,82,64,44,30.27,30.14,19,12,24,0.00
2013-3-13,62,46,30,36,31,26,88,60,32,30.30,30.19,18,9,22,0.00
2013-3-14,63,46,29,36,31,26,91,61,29,30.27,30.09,18,6,24,0.00
2013-3-15,61,51,39,32,29,26,69,44,27,30.10,29.99,25,14,31,0.00
2013-3-16,55,45,33,35,26,18,79,49,24,30.01,29.76,23,14,29,0.00
2013-3-17,42,36,27,36,17,3,85,49,21,29.95,29.70,37,22,48,0.00
2013-3-18,44,33,24,17,10,-100,66,44,30,30.04,29.92,32,20,43,0.00
2013-3-19,50,34,23,18,4,-100,70,37,14,30.22,30.04,20,8,27,0.00
2013-3-20,48,40,36,40,19,-100,87,57,14,30.08,29.64,30,15,38,0.00
2013-3-21,42,30,28,37,7,-100,86,55,40,29.94,29.69,35,25,47,0.00
2013-3-22,32,26,23,24,16,-100,89,72,52,29.99,29.85,20,12,28,0.00
2013-3-23,32,24,14,22,17,10,88,74,43,30.17,29.99,16,8,21,0.00
2013-3-24,35,26,18,20,12,-100,84,59,27,30.20,30.13,10,5,17,0.00
2013-3-25,46,23,13,24,-5,-100,77,47,29,30.17,30.00,10,4,11,0.00
2013-3-26,46,36,30,33,21,-100,85,63,45,30.00,29.91,12,5,18,0.00
2013-3-27,56,41,29,35,29,24,90,65,28,30.02,29.95,10,4,15,0.00
2013-3-28,63,46,28,34,29,24,88,57,24,30.06,29.98,20,6,27,0.00
2013-3-29,63,50,36,36,32,27,77,51,26,30.17,30.05,22,12,31,0.00
2013-3-30,60,48,33,33,27,-100,79,50,24,30.22,30.13,15,6,18,0.00
2013-3-31,67,47,26,29,22,9,82,44,11,30.13,29.92,13,5,18,0.00
2013-4-1,61,48,31,40,32,24,77,56,32,29.97,29.89,17,8,24,0.00
2013-4-2,64,50,38,40,35,27,86,61,24,30.07,29.96,14,8,21,0.00
2013-4-3,66,53,38,33,29,24,62,41,21,30.13,30.04,18,12,30,0.00
2013-4-4,69,59,43,38,32,29,64,37,23,30.07,29.86,22,13,29,0.00
2013-4-5,58,50,44,43,35,25,86,57,29,29.98,29.86,33,20,41,0.00
2013-4-6,56,47,38,35,31,26,76,55,37,29.97,29.91,26,15,40,0.00
2013-4-7,54,44,37,40,34,30,82,66,40,29.91,29.63,32,18,45,0.00
2013-4-8,42,38,32,34,27,12,90,68,41,29.76,29.54,29,15,45,0.00
2013-4-9,48,36,24,19,14,10,80,43,25,30.10,29.76,27,18,39,0.00
2013-4-10,56,41,18,37,23,13,80,52,29,30.14,29.85,21,12,28,0.00
2013-4-11,55,46,38,38,28,15,81,52,29,30.01,29.86,24,16,30,0.00
2013-4-12,56,44,31,27,20,14,70,41,20,30.04,29.74,22,12,29,0.00
2013-4-13,53,47,33,38,19,1,84,36,17,29.76,29.51,39,23,57,0.00
2013-4-14,45,33,15,16,9,4,64,40,19,29.83,29.69,18,11,30,0.00
2013-4-15,43,35,29,26,22,12,86,61,37,29.75,29.66,15,6,22,0.00
2013-4-16,43,33,25,24,14,5,82,48,24,30.00,29.72,23,15,31,0.00
2013-4-17,42,31,19,9,5,1,61,34,17,30.18,30.00,20,13,28,0.00
2013-4-18,50,34,11,19,9,1,68,39,20,30.27,30.17,18,10,28,0.00
2013-4-19,48,42,35,39,30,19,85,62,42,30.18,29.93,24,16,32,0.00
2013-4-20,56,46,39,38,33,22,89,64,28,30.05,29.94,32,20,41,0.00
2013-4-21,60,48,35,28,25,18,68,42,20,30.08,29.90,30,20,39,0.00
2013-4-22,45,38,30,30,20,8,91,52,24,30.21,29.91,22,12,28,0.00
2013-4-23,47,34,17,20,10,-5,76,41,11,30.24,30.07,13,6,17,0.00
2013-4-24,55,40,20,20,14,2,74,39,11,30.26,30.08,11,6,16,0.00
2013-4-25,64,47,23,24,16,7,73,35,11,30.08,29.95,23,10,30,0.00
2013-4-26,68,52,30,29,21,16,60,33,15,30.24,30.02,15,9,26,0.00
2013-4-27,74,57,34,31,27,21,68,34,15,30.25,30.04,25,12,30,0.00
2013-4-28,67,56,40,30,26,22,60,32,19,30.05,29.91,34,20,42,0.00
2013-4-29,64,54,44,32,28,22,54,38,24,29.94,29.72,38,23,50,0.00
2013-4-30,53,42,28,31,19,10,90,42,18,30.07,29.75,27,16,39,0.00
2013-5-1,51,38,23,30,14,0,90,44,12,30.54,30.07,19,7,26,0.00
2013-5-2,61,43,20,21,13,10,65,33,14,30.62,30.33,13,5,17,0.00
2013-5-3,67,53,33,31,19,8,62,31,10,30.33,30.00,18,6,28,0.00
2013-5-4,62,52,45,41,33,28,63,49,28,30.04,29.94,25,14,37,0.00
2013-5-5,69,56,40,37,32,29,75,43,23,29.97,29.86,17,8,22,0.00
2013-5-6,71,54,34,45,35,28,85,51,23,29.93,29.85,21,6,36,0.00
2013-5-7,62,55,48,45,42,38,77,62,43,29.98,29.89,29,10,36,0.00
2013-5-8,69,54,38,46,38,33,81,58,32,30.10,29.98,23,7,32,0.00
2013-5-9,75,56,36,44,37,25,86,54,16,30.17,30.06,38,6,52,0.00
2013-5-10,77,59,39,44,32,-100,83,46,12,30.25,30.16,14,7,22,0.00
2013-5-11,80,60,38,46,33,-100,71,41,15,30.31,30.17,16,6,23,0.00
2013-5-12,85,66,42,47,35,30,69,37,14,30.24,30.08,19,7,26,0.00
2013-5-13,87,72,48,48,38,30,72,32,17,30.13,29.94,16,-18,21,0.00
2013-5-14,77,66,56,45,38,29,55,37,22,30.08,29.91,24,16,31,0.00
2013-5-15,78,64,50,43,38,30,68,40,19,29.99,29.82,19,11,27,0.00
2013-5-16,70,57,50,44,26,-100,78,46,28,29.90,29.83,22,12,32,0.00
2013-5-17,58,52,49,47,40,-100,86,74,59,29.92,29.86,13,8,20,0.00
2013-5-20,66,60,52,44,41,37,73,51,35,30.18,30.06,10,6,15,0.00
2013-5-21,71,59,41,44,38,32,85,50,27,30.07,29.65,27,12,35,0.00
2013-5-22,66,52,42,39,29,19,59,43,27,29.93,29.64,25,15,34,0.00
2013-5-23,63,48,35,36,29,23,83,50,28,29.95,29.77,24,8,30,0.00
2013-5-24,69,55,37,35,22,16,73,31,13,30.06,29.88,20,12,31,0.00
2013-5-25,67,54,35,37,30,16,73,43,18,29.95,29.84,18,9,23,0.00
2013-5-26,72,56,40,42,33,27,77,46,21,29.96,29.84,21,6,26,0.00
2013-5-27,65,55,43,40,34,25,74,48,22,30.02,29.84,24,13,28,0.00
2013-5-28,54,49,42,47,43,37,87,77,61,29.89,29.75,17,9,23,0.00
2013-5-29,63,53,46,44,39,33,86,60,33,29.81,29.74,23,15,30,0.00
2013-5-30,63,52,42,39,33,24,77,50,24,29.98,29.80,28,17,37,0.00
2013-5-31,66,53,40,35,30,23,73,44,22,30.21,29.98,19,14,24,0.00
2013-6-1,73,57,36,38,30,23,67,37,18,30.24,30.01,15,7,19,0.00
2013-6-2,83,66,41,42,34,24,76,34,16,30.01,29.69,24,11,38,0.00
2013-6-3,70,56,36,37,32,24,79,42,21,30.02,29.83,18,10,26,0.00
2013-6-4,71,58,39,38,31,24,67,38,21,30.11,29.97,14,7,19,0.00
2013-6-5,77,60,37,45,34,27,80,41,16,30.15,30.02,13,6,16,0.00
2013-6-6,81,66,44,50,38,28,76,39,18,30.09,30.00,22,7,36,0.00
2013-6-7,84,66,46,49,43,37,83,48,20,30.03,29.83,28,-12,35,0.00
2013-6-8,81,68,53,48,40,30,65,39,18,30.05,29.86,19,13,24,0.00
2013-6-9,87,72,53,51,40,32,59,32,17,30.02,29.84,21,13,28,0.00
2013-6-10,91,76,55,50,39,18,68,31,8,29.86,29.67,29,10,37,0.00
2013-6-11,81,72,55,48,40,22,57,33,11,29.96,29.69,26,15,34,0.00
2013-6-12,76,66,57,56,46,36,75,50,28,30.07,29.93,21,10,27,0.10
2013-6-13,72,60,50,50,42,33,85,54,26,30.05,29.86,25,12,37,0.00
2013-6-14,65,53,43,38,32,22,67,46,19,30.21,30.05,23,14,31,0.00
2013-6-15,78,57,32,38,29,21,77,40,12,30.13,29.98,10,5,14,0.00
2013-6-16,87,66,42,47,37,27,74,40,13,30.04,29.96,18,6,26,0.00
2013-6-17,87,68,44,45,36,21,79,36,9,30.08,29.93,12,-1,17,0.00
2013-6-18,89,70,46,42,33,18,70,31,10,29.93,29.59,18,7,22,0.00
2013-6-19,79,60,45,42,36,18,69,42,10,30.04,29.57,32,16,47,0.00
2013-7-10,-200,0,200,-100,-100,-100,0,0,100,30.11,30.10,4,4,5,0.00
2013-7-13,75,75,75,41,41,41,29,29,29,29.96,29.96,16,16,22,0.00
2013-7-14,84,84,84,-100,-100,-100,24,24,24,30.13,30.13,6,6,10,0.00
2013-11-9,-200,0,200,-100,-100,-100,0,0,100,30.18,30.18,3,3,3,0.00
2013-11-11,32,32,32,23,23,23,70,70,70,30.24,30.24,4,4,6,0.00
2013-11-30,-200,0,200,-100,-100,-100,0,0,100,30.27,30.27,16,16,23,0.00
2013-12-7,-200,0,200,-100,-100,-100,0,0,100,29.81,29.81,8,8,10,0.00